GEC44E LOWW-EDDL

Flight info

Callsign GEC44E
Flight time 1h 8m
Altitude 36000
Route BUWUT1D/34 BUWUT DCT DITIS DCT RAPET T843 VELIS DCT AMETU T852 TINSA T854 DOMUX DOMUX1A
Aircraft B77L/H-SDE1E2E3FGHIJ2J3J4J5M1RWXY/LB1D1

Departure

Time 2026-05-01 12:31
Airport Vienna International Airport (LOWW)

Arrival

Time 2026-05-01 13:40
Airport Düsseldorf Airport (EDDL)
Time Latitude Longitude Altitude Speed Heading
2026-05-01 11:22 48.12174 16.54835 614 ft 0 kts 26°
2026-05-01 12:19 48.12175 16.54835 614 ft 0 kts 26°
2026-05-01 12:19 48.12169 16.54831 614 ft 4 kts 26°
2026-05-01 12:19 48.12147 16.54815 628 ft 4 kts 26°
2026-05-01 12:19 48.12127 16.54800 614 ft 1 kts 26°
2026-05-01 12:20 48.12124 16.54799 614 ft 0 kts 26°
2026-05-01 12:23 48.12126 16.54800 614 ft 1 kts 26°
2026-05-01 12:23 48.12131 16.54806 614 ft 2 kts 40°
2026-05-01 12:23 48.12126 16.54833 631 ft 5 kts 130°
2026-05-01 12:24 48.12067 16.54914 626 ft 18 kts 131°
2026-05-01 12:24 48.12009 16.55061 625 ft 16 kts 116°
2026-05-01 12:24 48.11949 16.55177 614 ft 13 kts 160°
2026-05-01 12:24 48.11872 16.55249 621 ft 14 kts 124°
2026-05-01 12:25 48.11826 16.55379 626 ft 15 kts 115°
2026-05-01 12:25 48.11736 16.55662 625 ft 15 kts 116°
2026-05-01 12:25 48.11690 16.55800 621 ft 15 kts 116°
2026-05-01 12:26 48.11641 16.55948 629 ft 16 kts 116°
2026-05-01 12:26 48.11538 16.56267 624 ft 18 kts 115°
2026-05-01 12:26 48.11483 16.56436 629 ft 18 kts 116°
2026-05-01 12:27 48.11426 16.56612 625 ft 19 kts 116°
2026-05-01 12:27 48.11307 16.56977 626 ft 20 kts 116°
2026-05-01 12:28 48.11181 16.57363 614 ft 20 kts 116°
2026-05-01 12:28 48.11125 16.57536 625 ft 16 kts 115°
2026-05-01 12:28 48.11012 16.57622 616 ft 11 kts 204°
2026-05-01 12:29 48.10944 16.57562 614 ft 11 kts 223°
2026-05-01 12:29 48.10937 16.57471 618 ft 8 kts 288°
2026-05-01 12:29 48.10945 16.57444 614 ft 0 kts 294°
2026-05-01 12:30 48.10995 16.57279 620 ft 55 kts 295°
2026-05-01 12:30 48.11296 16.56362 626 ft 137 kts 295°
2026-05-01 12:31 48.11791 16.54836 848 ft 176 kts 297°
2026-05-01 12:31 48.12337 16.53162 1713 ft 181 kts 298°
2026-05-01 12:31 48.12869 16.51445 2648 ft 186 kts 298°
2026-05-01 12:31 48.13325 16.49524 3218 ft 210 kts 275°
2026-05-01 12:32 48.12843 16.47290 3626 ft 247 kts 235°
2026-05-01 12:32 48.10412 16.43532 5665 ft 246 kts 245°
2026-05-01 12:32 48.10005 16.41092 6683 ft 244 kts 275°
2026-05-01 12:33 48.10447 16.38504 6624 ft 269 kts 308°
2026-05-01 12:33 48.11885 16.36801 7379 ft 265 kts 337°
2026-05-01 12:33 48.13501 16.35387 8209 ft 274 kts 327°
2026-05-01 12:33 48.14980 16.33581 9350 ft 276 kts 323°
2026-05-01 12:34 48.16437 16.31663 10366 ft 283 kts 323°
2026-05-01 12:34 48.17968 16.29631 10850 ft 308 kts 323°
2026-05-01 12:34 48.19661 16.27393 11172 ft 339 kts 323°
2026-05-01 12:34 48.21454 16.25005 12112 ft 349 kts 323°
2026-05-01 12:35 48.23260 16.22597 13248 ft 355 kts 323°
2026-05-01 12:35 48.25118 16.20113 14436 ft 361 kts 323°
2026-05-01 12:35 48.27005 16.17595 15535 ft 366 kts 323°
2026-05-01 12:35 48.28930 16.15054 16614 ft 371 kts 325°
2026-05-01 12:36 48.30920 16.12541 17660 ft 377 kts 326°
2026-05-01 12:36 48.32943 16.09985 18697 ft 384 kts 325°
2026-05-01 12:36 48.34986 16.07357 19584 ft 390 kts 324°
2026-05-01 12:36 48.37043 16.04658 20497 ft 395 kts 324°
2026-05-01 12:37 48.39120 16.01891 21418 ft 401 kts 324°
2026-05-01 12:37 48.41209 15.99080 22328 ft 406 kts 324°
2026-05-01 12:37 48.43323 15.96223 23237 ft 411 kts 324°
2026-05-01 12:37 48.45460 15.93329 24112 ft 416 kts 324°
2026-05-01 12:38 48.47629 15.90384 24895 ft 421 kts 324°
2026-05-01 12:38 48.49809 15.87421 25677 ft 424 kts 324°
2026-05-01 12:38 48.52009 15.84427 26458 ft 427 kts 324°
2026-05-01 12:38 48.54223 15.81414 27203 ft 432 kts 324°
2026-05-01 12:39 48.56469 15.78356 27924 ft 437 kts 324°
2026-05-01 12:39 48.58733 15.75268 28643 ft 441 kts 323°
2026-05-01 12:39 48.61022 15.72140 29382 ft 444 kts 323°
2026-05-01 12:39 48.63293 15.69034 30068 ft 448 kts 323°
2026-05-01 12:40 48.65620 15.65847 30689 ft 453 kts 323°
2026-05-01 12:40 48.67918 15.62564 31359 ft 457 kts 319°
2026-05-01 12:40 48.69994 15.58908 32142 ft 458 kts 314°
2026-05-01 12:40 48.71856 15.54991 32946 ft 460 kts 308°
2026-05-01 12:41 48.73467 15.50796 33712 ft 461 kts 304°
2026-05-01 12:41 48.74997 15.46522 34433 ft 461 kts 304°
2026-05-01 12:41 48.76517 15.42256 35016 ft 460 kts 304°
2026-05-01 12:41 48.78053 15.38008 35605 ft 458 kts 304°
2026-05-01 12:42 48.79597 15.33786 36159 ft 458 kts 304°
2026-05-01 12:42 48.81230 15.29632 36375 ft 460 kts 309°
2026-05-01 12:42 48.84955 15.21799 36365 ft 454 kts 311°
2026-05-01 12:43 48.88638 15.14089 36371 ft 450 kts 311°
2026-05-01 12:43 48.92285 15.06429 36363 ft 449 kts 311°
2026-05-01 12:44 48.96022 14.98804 36377 ft 450 kts 312°
2026-05-01 12:45 49.03518 14.83456 36388 ft 453 kts 311°
2026-05-01 12:45 49.07262 14.75730 36378 ft 453 kts 311°
2026-05-01 12:46 49.11002 14.67979 36369 ft 453 kts 311°
2026-05-01 12:46 49.14738 14.60212 36379 ft 453 kts 311°
2026-05-01 12:47 49.18466 14.52445 36383 ft 453 kts 311°
2026-05-01 12:47 49.22163 14.44718 36384 ft 453 kts 311°
2026-05-01 12:48 49.25877 14.36936 36385 ft 453 kts 310°
2026-05-01 12:48 49.29585 14.29141 36376 ft 452 kts 310°
2026-05-01 12:49 49.33285 14.21342 36382 ft 452 kts 310°
2026-05-01 12:49 49.36975 14.13541 36384 ft 452 kts 310°
2026-05-01 12:50 49.40652 14.05738 36381 ft 451 kts 310°
2026-05-01 12:50 49.44323 13.97929 36399 ft 451 kts 310°
2026-05-01 12:51 49.47990 13.90106 36385 ft 450 kts 309°
2026-05-01 12:52 49.53475 13.78366 36387 ft 450 kts 309°
2026-05-01 12:52 49.58954 13.66585 36396 ft 451 kts 309°
2026-05-01 12:53 49.64409 13.54800 36383 ft 452 kts 308°
2026-05-01 12:54 49.68055 13.46896 36397 ft 452 kts 308°
2026-05-01 12:54 49.73519 13.35007 36401 ft 453 kts 308°
2026-05-01 12:55 49.78988 13.23055 36407 ft 460 kts 308°
2026-05-01 12:56 49.82755 13.14796 36408 ft 477 kts 308°
2026-05-01 12:56 49.86632 13.06264 36396 ft 488 kts 308°
2026-05-01 12:57 49.90533 12.97644 36391 ft 488 kts 308°
2026-05-01 12:57 49.96372 12.84689 36396 ft 487 kts 308°
2026-05-01 12:58 50.00254 12.76043 36389 ft 486 kts 307°
2026-05-01 12:59 50.06027 12.63143 36391 ft 486 kts 307°
2026-05-01 12:59 50.11804 12.50159 36395 ft 486 kts 307°
2026-05-01 13:00 50.17439 12.36998 36385 ft 488 kts 300°
2026-05-01 13:01 50.20109 12.27233 36398 ft 491 kts 289°
2026-05-01 13:01 50.20994 12.22081 36400 ft 493 kts 286°
2026-05-01 13:02 50.23362 12.06499 36398 ft 493 kts 286°
2026-05-01 13:07 50.40521 10.92131 36364 ft 489 kts 284°
2026-05-01 13:08 50.41752 10.83478 36368 ft 488 kts 284°
2026-05-01 13:08 50.43225 10.73075 36370 ft 489 kts 284°
2026-05-01 13:09 50.44715 10.62654 36357 ft 489 kts 284°
2026-05-01 13:09 50.46222 10.52255 36365 ft 488 kts 284°
2026-05-01 13:10 50.48141 10.42082 36361 ft 485 kts 292°
2026-05-01 13:10 50.50625 10.32232 36362 ft 485 kts 293°
2026-05-01 13:11 50.53111 10.22381 36352 ft 485 kts 292°
2026-05-01 13:11 50.55515 10.12675 36349 ft 474 kts 292°
2026-05-01 13:12 50.57875 10.03038 36250 ft 469 kts 292°
2026-05-01 13:12 50.59039 9.98258 35872 ft 467 kts 292°
2026-05-01 13:12 50.60204 9.93471 35282 ft 470 kts 292°
2026-05-01 13:12 50.61378 9.88639 34688 ft 474 kts 292°
2026-05-01 13:13 50.62556 9.83784 34028 ft 476 kts 292°
2026-05-01 13:13 50.63742 9.78899 33309 ft 478 kts 292°
2026-05-01 13:13 50.64924 9.74007 32628 ft 479 kts 291°
2026-05-01 13:13 50.66114 9.69067 31760 ft 483 kts 291°
2026-05-01 13:14 50.67291 9.64118 31241 ft 474 kts 291°
2026-05-01 13:14 50.68435 9.59336 31158 ft 460 kts 291°
2026-05-01 13:14 50.69559 9.54662 31065 ft 451 kts 291°
2026-05-01 13:15 50.71718 9.45602 30780 ft 438 kts 291°
2026-05-01 13:15 50.72790 9.41098 30480 ft 437 kts 291°
2026-05-01 13:15 50.73859 9.36610 30048 ft 437 kts 291°
2026-05-01 13:15 50.74921 9.32122 29748 ft 434 kts 291°
2026-05-01 13:16 50.75967 9.27673 29493 ft 430 kts 291°
2026-05-01 13:16 50.77008 9.23264 29167 ft 429 kts 291°
2026-05-01 13:16 50.78049 9.18849 28786 ft 428 kts 291°
2026-05-01 13:17 50.81142 9.05660 27764 ft 426 kts 291°
2026-05-01 13:17 50.82163 9.01339 27493 ft 423 kts 292°
2026-05-01 13:18 50.84916 8.93186 26910 ft 419 kts 306°
2026-05-01 13:18 50.86665 8.89521 26577 ft 416 kts 310°
2026-05-01 13:18 50.88472 8.85973 26138 ft 412 kts 310°
2026-05-01 13:18 50.90285 8.82423 25701 ft 417 kts 310°
2026-05-01 13:19 50.92104 8.78835 25164 ft 419 kts 310°
2026-05-01 13:19 50.93918 8.75226 24620 ft 418 kts 310°
2026-05-01 13:19 50.97479 8.68094 23600 ft 403 kts 309°
2026-05-01 13:20 50.99214 8.64607 23152 ft 401 kts 309°
2026-05-01 13:20 51.01027 8.61277 22585 ft 399 kts 316°
2026-05-01 13:20 51.03069 8.58326 22078 ft 395 kts 322°
2026-05-01 13:21 51.07561 8.53396 21066 ft 390 kts 328°
2026-05-01 13:21 51.09824 8.51082 20748 ft 383 kts 328°
2026-05-01 13:21 51.12055 8.48800 20301 ft 381 kts 328°
2026-05-01 13:21 51.14260 8.46530 20015 ft 374 kts 328°
2026-05-01 13:22 51.16407 8.44303 19572 ft 373 kts 328°
2026-05-01 13:22 51.18589 8.42028 19014 ft 376 kts 328°
2026-05-01 13:22 51.20764 8.39754 18598 ft 373 kts 328°
2026-05-01 13:22 51.22926 8.37492 18162 ft 370 kts 328°
2026-05-01 13:23 51.25075 8.35241 17685 ft 368 kts 327°
2026-05-01 13:23 51.27205 8.33004 17258 ft 365 kts 327°
2026-05-01 13:23 51.29325 8.30778 16779 ft 364 kts 327°
2026-05-01 13:23 51.31427 8.28572 16382 ft 359 kts 327°
2026-05-01 13:24 51.33515 8.26374 15854 ft 359 kts 327°
2026-05-01 13:24 51.35597 8.24181 15417 ft 357 kts 327°
2026-05-01 13:24 51.37674 8.22008 14993 ft 355 kts 328°
2026-05-01 13:25 51.41775 8.17718 14202 ft 349 kts 327°
2026-05-01 13:25 51.43799 8.15583 13774 ft 347 kts 327°
2026-05-01 13:25 51.45797 8.13460 13325 ft 341 kts 327°
2026-05-01 13:25 51.47738 8.11404 12864 ft 327 kts 327°
2026-05-01 13:26 51.49437 8.09126 12317 ft 323 kts 307°
2026-05-01 13:26 51.50408 8.05953 11993 ft 314 kts 281°
2026-05-01 13:26 51.50603 8.02507 11633 ft 307 kts 262°
2026-05-01 13:26 51.50164 7.99213 11295 ft 299 kts 250°
2026-05-01 13:27 51.49579 7.96024 10885 ft 298 kts 250°
2026-05-01 13:27 51.49005 7.92839 10508 ft 296 kts 250°
2026-05-01 13:27 51.47893 7.86555 9874 ft 287 kts 250°
2026-05-01 13:28 51.46810 7.80531 9286 ft 277 kts 250°
2026-05-01 13:28 51.46284 7.77575 8862 ft 276 kts 250°
2026-05-01 13:29 51.45230 7.71690 8115 ft 273 kts 250°
2026-05-01 13:29 51.44197 7.65878 7427 ft 268 kts 250°
2026-05-01 13:30 51.42179 7.54590 6381 ft 257 kts 250°
2026-05-01 13:31 51.41672 7.48784 6234 ft 270 kts 263°
2026-05-01 13:31 51.41427 7.39822 5538 ft 261 kts 263°
2026-05-01 13:32 51.41251 7.34330 5164 ft 242 kts 261°
2026-05-01 13:33 51.40942 7.26143 4833 ft 240 kts 262°
2026-05-01 13:33 51.40740 7.20877 4722 ft 239 kts 262°
2026-05-01 13:34 51.40515 7.15505 4701 ft 241 kts 262°
2026-05-01 13:34 51.40310 7.10237 4354 ft 231 kts 261°
2026-05-01 13:35 51.40102 7.05212 3936 ft 217 kts 261°
2026-05-01 13:35 51.40004 7.02856 3678 ft 215 kts 261°
2026-05-01 13:35 51.39014 6.98732 3155 ft 188 kts 232°
2026-05-01 13:36 51.38258 6.96937 3007 ft 200 kts 229°
2026-05-01 13:36 51.37424 6.95145 2701 ft 199 kts 228°
2026-05-01 13:36 51.35849 6.91809 2228 ft 179 kts 226°
2026-05-01 13:37 51.35124 6.90280 1962 ft 165 kts 227°
2026-05-01 13:37 51.34472 6.88901 1789 ft 154 kts 225°
2026-05-01 13:37 51.33811 6.87525 1604 ft 156 kts 226°
2026-05-01 13:37 51.33162 6.86147 1370 ft 152 kts 227°
2026-05-01 13:38 51.31916 6.83504 1031 ft 148 kts 226°
2026-05-01 13:38 51.31282 6.82150 831 ft 152 kts 226°
2026-05-01 13:38 51.30638 6.80823 640 ft 152 kts 228°
2026-05-01 13:39 51.30016 6.79487 368 ft 148 kts 226°
2026-05-01 13:39 51.29397 6.78199 163 ft 147 kts 225°
2026-05-01 13:39 51.28814 6.77020 133 ft 117 kts 234°
2026-05-01 13:39 51.28476 6.76288 128 ft 65 kts 232°
2026-05-01 13:40 51.28322 6.76050 127 ft 19 kts 199°
2026-05-01 13:40 51.28253 6.76044 130 ft 8 kts 170°
2026-05-01 13:40 51.28195 6.76097 128 ft 11 kts 126°
2026-05-01 13:40 51.28218 6.76211 128 ft 14 kts 50°
2026-05-01 13:41 51.28296 6.76369 126 ft 20 kts 52°
2026-05-01 13:41 51.28376 6.76537 125 ft 17 kts 53°
2026-05-01 13:41 51.28435 6.76663 126 ft 13 kts 53°
2026-05-01 13:41 51.28486 6.76774 126 ft 1 kts 53°
2026-05-01 13:42 51.28484 6.76792 132 ft 3 kts 112°
2026-05-01 13:42 51.28433 6.76819 125 ft 15 kts 162°
2026-05-01 13:42 51.28362 6.76913 125 ft 12 kts 103°
2026-05-01 13:42 51.28391 6.77031 128 ft 12 kts 53°
2026-05-01 13:43 51.28443 6.77139 132 ft 13 kts 53°
2026-05-01 13:43 51.28490 6.77241 127 ft 8 kts 53°
2026-05-01 13:43 51.28522 6.77311 134 ft 5 kts 57°
2026-05-01 13:43 51.28520 6.77348 134 ft 4 kts 114°
2026-05-01 13:44 51.28498 6.77391 134 ft 3 kts 136°
2026-05-01 13:44 51.28486 6.77406 133 ft 1 kts 142°
2026-05-01 13:44 51.28485 6.77407 135 ft 0 kts 142°